Temp
63 62 61 61 55 49 45 49 54 56 58 61 62 61 61 62 60 56 62 64 63 65 67 69 69 69 69 69 69 69 69 69 70 70 70 71 71 71 72 72 72 73 74 75 76 76 76 75 74
62 65 60 54 47 43 46 50 52 56 60 60 61 60 60 60 61 60 61 63 64 65 66 66 68 69 68 68 68 68 69 69 69 69 70 70 70 70 70 71 71 73 73 74 75 76 75 74 74
64 62 57 49 42 43 46 51 54 58 59 60 59 61 61 60 60 61 64 64 63 64 64 65 68 68 68 68 68 68 68 68 68 69 69 69 69 69 69 70 70 71 72 73 74 74 74 74 74
62 59 53 48 44 48 50 56 56 57 59 59 60 57 61 65 63 63 64 63 62 62 63 66 68 68 68 67 67 67 67 68 68 68 68 68 68 68 68 69 70 70 71 73 73 73 73 73 73
56 53 46 44 45 50 51 55 55 55 57 58 59 57 58 62 62 61 61 62 61 60 61 64 67 67 67 67 67 66 67 67 67 67 67 67 67 67 67 67 68 69 71 72 72 72 72 72 72
53 51 44 43 45 51 54 57 55 55 56 57 56 56 58 59 60 59 60 61 61 60 60 62 65 66 66 66 66 66 66 66 66 66 65 65 65 65 65 66 66 67 69 70 70 70 71 71 71
51 47 44 42 45 48 54 53 53 55 55 56 58 55 60 59 60 59 59 60 59 59 59 59 61 63 64 65 64 64 64 64 64 64 63 62 62 62 62 62 63 65 66 68 69 69 69 70 71
50 49 43 43 45 49 53 53 56 56 57 58 60 55 56 61 57 57 58 58 57 57 57 57 58 59 59 59 61 62 62 62 62 60 59 59 58 57 57 59 60 63 65 66 66 67 68 69 69
52 46 41 46 45 50 53 52 56 56 56 56 58 58 60 56 56 55 54 54 55 56 56 56 56 57 57 58 58 58 58 58 57 56 56 55 56 56 56 57 58 61 62 63 64 66 67 66 66
50 43 46 49 49 50 52 52 53 54 53 53 55 57 55 54 54 54 53 53 53 54 55 56 56 56 56 59 56 55 56 55 54 54 54 55 55 54 56 54 55 57 58 60 62 64 64 64 67
47 46 47 50 52 51 51 50 53 50 51 53 54 56 53 52 52 53 53 54 55 55 56 56 55 55 55 56 54 54 53 53 53 53 53 53 54 54 54 53 54 55 56 59 60 62 65 65 64
46 49 49 52 51 50 49 51 51 50 55 56 56 56 53 52 52 53 53 53 54 54 56 56 55 54 53 53 53 53 53 53 53 52 52 52 52 52 53 53 53 53 56 57 60 60 62 64 63
47 48 50 51 49 50 49 49 49 50 54 55 54 53 54 52 52 53 54 54 54 54 55 55 54 53 53 52 51 52 52 52 51 51 51 52 51 51 52 52 54 54 56 58 59 60 61 63 61
48 49 50 50 48 49 47 47 46 52 52 52 51 51 52 52 52 51 51 53 53 54 54 54 53 52 51 51 50 51 51 51 51 51 51 51 52 51 52 52 53 54 57 58 58 58 61 61 59
48 46 48 45 46 47 46 47 45 53 52 52 52 52 51 51 52 52 54 53 54 54 54 52 51 50 50 50 50 50 49 50 49 50 51 51 52 52 52 52 53 55 57 58 59 61 61 60 58
44 44 42 44 46 46 46 45 52 51 50 54 53 52 51 52 52 52 53 53 53 53 52 51 52 49 49 49 49 49 49 49 49 50 51 51 52 53 53 53 53 55 58 59 58 59 58 57 58
40 39 39 44 45 44 44 44 51 50 49 51 52 52 51 51 52 52 52 52 52 52 50 48 48 48 47 48 47 47 47 48 49 50 51 52 54 54 54 54 55 56 57 57 57 59 59 57 56
39 37 38 39 42 42 42 45 51 52 49 50 51 47 47 49 51 52 51 50 49 49 48 48 47 47 46 46 46 46 47 48 49 51 52 54 54 54 55 55 54 54 56 56 58 58 59 57 56
40 38 38 41 43 41 41 43 49 54 47 45 46 46 46 46 49 49 47 46 46 46 46 46 46 45 46 45 45 44 45 46 48 51 52 54 54 54 53 54 53 54 54 55 57 58 57 55 53
38 37 38 41 42 41 40 44 50 47 47 47 47 48 47 45 45 44 43 44 46 45 45 45 46 45 45 44 43 44 44 46 47 50 51 52 52 52 53 53 52 53 53 55 57 59 55 54 55
37 37 36 39 41 39 38 43 47 48 47 47 47 46 46 45 44 42 42 43 43 43 44 45 45 44 44 44 44 44 45 46 47 48 49 50 51 51 51 52 52 52 53 54 56 57 57 53 53
37 39 38 38 37 35 38 35 43 45 46 46 47 47 46 45 43 42 42 42 43 43 43 44 44 44 44 43 44 43 43 43 45 45 47 48 49 49 51 51 52 51 52 54 55 57 57 56 51
38 39 38 37 36 34 35 34 43 42 48 48 48 46 46 44 43 42 43 43 43 42 41 43 43 43 43 43 43 43 42 43 45 45 45 46 47 49 50 50 51 50 52 53 56 55 55 55 54
39 38 36 33 33 22 33 32 41 45 47 45 45 46 46 44 42 43 43 43 42 40 40 41 41 41 42 43 43 43 43 43 43 44 44 44 46 48 49 50 49 50 51 51 55 55 55 53 54
37 34 20 21 18 24 30 30 42 45 47 48 48 47 45 43 42 42 41 41 40 39 39 40 40 40 41 42 42 43 43 43 42 42 42 43 44 45 47 48 48 48 49 52 54 55 54 53 53
35 35 25 20 21 26 31 30 42 46 45 47 47 46 45 43 43 43 42 42 41 40 39 40 39 39 40 41 42 43 43 43 43 42 42 42 43 44 45 47 48 48 50 52 53 55 54 54 53
35 30 36 22 13 22 31 37 47 44 45 45 46 44 45 43 43 43 42 41 41 39 39 40 39 39 39 40 41 41 42 42 42 42 43 43 43 45 46 46 47 49 50 52 53 55 54 54 54
37 38 31 25 21 19 25 30 39 43 44 44 46 46 45 43 43 43 41 41 40 40 39 39 39 39 39 40 40 42 41 42 42 42 42 43 44 45 45 46 47 48 50 51 53 54 54 54 54
34 32 34 34 28 22 19 32 41 42 44 44 44 45 45 44 44 43 42 41 40 40 38 38 38 38 38 39 40 41 41 41 42 42 43 44 46 46 46 46 47 49 50 50 52 54 54 54 53
33 35 37 31 24 21 23 31 44 44 45 46 47 46 45 44 44 44 42 40 39 39 37 37 37 38 38 39 40 40 41 41 41 42 45 46 46 47 46 47 48 50 51 50 53 54 55 54 53
MSLP
1014.06 1013.99 1014.11 1014.46 1016.05 1016.92 1016.68 1015.79 1014.97 1014.45 1014.18 1013.74 1013.72 1013.77 1013.79 1013.91 1014.30 1015.19 1014.87 1015.04 1015.12 1015.29 1015.59 1015.81 1016.06 1016.28 1016.54 1016.72 1016.85 1016.87 1016.83 1016.78 1016.76 1016.71 1016.64 1016.54 1016.37 1016.16 1015.96 1015.79 1015.71 1015.57 1015.46 1015.30 1015.22 1015.17 1015.34 1015.47 1015.64
1014.11 1014.11 1014.60 1015.77 1016.78 1017.42 1016.56 1015.44 1015.00 1014.28 1013.92 1013.82 1013.87 1014.01 1014.18 1014.00 1014.14 1014.46 1014.86 1015.05 1015.24 1015.34 1015.67 1015.92 1016.03 1016.29 1016.47 1016.66 1016.77 1016.77 1016.83 1016.86 1016.83 1016.82 1016.79 1016.65 1016.55 1016.39 1016.18 1015.94 1015.70 1015.63 1015.42 1015.31 1015.17 1015.11 1015.18 1015.32 1015.48
1014.10 1014.36 1015.66 1016.72 1017.43 1017.32 1016.37 1015.04 1014.58 1014.34 1014.27 1014.27 1014.20 1014.13 1014.11 1014.03 1014.17 1014.16 1014.21 1014.75 1015.35 1015.69 1015.87 1015.93 1016.02 1016.18 1016.42 1016.69 1016.81 1016.83 1016.85 1016.83 1016.89 1016.90 1016.86 1016.79 1016.66 1016.52 1016.34 1016.17 1015.92 1015.61 1015.44 1015.35 1015.22 1015.16 1015.12 1015.09 1015.24
1014.41 1015.27 1017.04 1017.02 1017.29 1016.40 1015.72 1014.77 1014.62 1014.44 1014.44 1014.46 1014.48 1014.48 1014.17 1013.65 1013.95 1014.27 1014.47 1014.90 1015.53 1015.86 1016.00 1015.97 1016.04 1016.16 1016.34 1016.60 1016.80 1016.92 1017.01 1017.02 1016.99 1016.98 1017.01 1016.95 1016.83 1016.75 1016.52 1016.24 1015.98 1015.78 1015.60 1015.30 1015.23 1015.18 1015.16 1015.08 1015.13
1015.17 1016.17 1017.10 1017.27 1016.69 1015.78 1015.06 1014.53 1014.48 1014.53 1014.46 1014.44 1014.53 1014.35 1014.24 1013.88 1014.04 1014.35 1014.78 1015.12 1015.52 1016.03 1016.19 1016.13 1016.15 1016.30 1016.45 1016.58 1016.74 1016.99 1017.12 1017.16 1017.12 1017.11 1017.13 1017.10 1017.10 1016.98 1016.81 1016.51 1016.22 1015.93 1015.51 1015.31 1015.25 1015.20 1015.17 1015.17 1015.15
1015.82 1016.61 1017.37 1017.35 1016.42 1015.37 1014.73 1014.21 1014.42 1014.52 1014.40 1014.53 1014.70 1014.56 1014.19 1014.18 1014.32 1014.65 1015.10 1015.36 1015.70 1015.93 1016.18 1016.29 1016.24 1016.37 1016.54 1016.72 1016.88 1016.94 1017.02 1017.08 1017.11 1017.11 1017.16 1017.21 1017.19 1017.22 1017.06 1016.81 1016.51 1016.17 1015.73 1015.42 1015.24 1015.21 1015.11 1015.08 1015.04
1015.87 1016.69 1016.97 1016.79 1016.22 1015.32 1014.42 1014.37 1014.50 1014.35 1014.34 1014.26 1014.21 1014.42 1013.90 1014.20 1014.32 1014.53 1015.03 1015.31 1015.78 1016.16 1016.30 1016.30 1016.33 1016.51 1016.64 1016.82 1016.99 1017.10 1017.09 1017.09 1017.18 1017.25 1017.26 1017.29 1017.32 1017.20 1017.08 1016.94 1016.72 1016.33 1015.97 1015.63 1015.34 1015.20 1015.01 1014.91 1014.81
1015.73 1016.49 1016.85 1016.40 1015.93 1014.89 1014.32 1014.33 1013.96 1014.21 1014.01 1014.05 1013.97 1014.08 1013.89 1013.85 1014.45 1014.87 1015.25 1015.63 1015.82 1016.12 1016.27 1016.39 1016.62 1016.70 1016.92 1017.08 1017.10 1017.18 1017.18 1017.23 1017.30 1017.46 1017.51 1017.43 1017.41 1017.38 1017.17 1016.95 1016.78 1016.38 1016.02 1015.70 1015.42 1015.16 1014.91 1014.68 1014.60
1015.62 1016.47 1016.87 1015.96 1015.57 1014.43 1014.19 1014.27 1013.96 1013.85 1014.04 1014.08 1013.91 1013.66 1013.60 1013.94 1014.29 1015.07 1015.71 1015.95 1016.13 1016.34 1016.45 1016.72 1016.75 1016.82 1016.99 1017.08 1017.21 1017.35 1017.36 1017.39 1017.53 1017.60 1017.60 1017.54 1017.46 1017.37 1017.13 1016.94 1016.76 1016.43 1016.10 1015.76 1015.38 1015.04 1014.71 1014.51 1014.32
1015.68 1016.40 1015.78 1015.05 1014.75 1014.37 1014.19 1014.23 1014.03 1014.07 1013.94 1013.84 1013.60 1013.50 1013.81 1014.30 1014.61 1014.82 1015.18 1015.56 1015.94 1016.07 1016.22 1016.38 1016.71 1016.80 1017.00 1017.05 1017.33 1017.58 1017.61 1017.69 1017.70 1017.69 1017.69 1017.58 1017.45 1017.34 1017.09 1016.89 1016.63 1016.39 1016.20 1015.76 1015.29 1014.79 1014.48 1014.23 1014.12
1015.58 1015.58 1015.21 1014.58 1014.35 1014.41 1014.41 1014.42 1014.12 1014.09 1013.64 1013.05 1013.09 1013.12 1013.79 1014.34 1014.66 1014.83 1014.83 1014.98 1015.08 1015.51 1015.88 1016.10 1016.48 1016.80 1016.97 1017.21 1017.48 1017.70 1017.82 1017.78 1017.71 1017.67 1017.59 1017.45 1017.28 1017.11 1016.97 1016.77 1016.50 1016.25 1015.89 1015.55 1015.20 1014.70 1014.17 1014.03 1014.12
1015.48 1015.06 1015.02 1014.53 1014.45 1014.63 1014.66 1014.42 1014.33 1013.94 1012.45 1012.39 1012.61 1012.93 1013.50 1013.96 1014.25 1014.26 1014.53 1014.65 1015.05 1015.35 1015.53 1016.00 1016.34 1016.68 1017.00 1017.34 1017.53 1017.76 1017.77 1017.76 1017.72 1017.69 1017.59 1017.38 1017.22 1017.11 1016.97 1016.72 1016.45 1016.21 1015.83 1015.47 1015.11 1014.64 1014.25 1013.96 1014.11
1015.28 1014.91 1014.83 1014.51 1014.64 1014.68 1014.68 1014.54 1014.49 1013.06 1012.36 1012.52 1012.78 1013.05 1013.16 1013.52 1013.71 1013.84 1014.21 1014.70 1014.99 1015.12 1015.38 1015.77 1016.18 1016.45 1016.96 1017.37 1017.68 1017.71 1017.71 1017.78 1017.79 1017.78 1017.69 1017.54 1017.30 1017.16 1016.97 1016.62 1016.28 1016.01 1015.68 1015.35 1015.00 1014.60 1014.22 1013.95 1014.13
1014.94 1014.96 1014.73 1014.39 1014.47 1014.55 1014.62 1014.56 1014.37 1012.02 1011.96 1012.27 1012.66 1012.90 1013.01 1013.13 1013.30 1013.68 1013.96 1014.34 1014.68 1014.84 1015.22 1015.68 1016.13 1016.57 1017.01 1017.36 1017.55 1017.70 1017.83 1017.82 1017.84 1017.78 1017.69 1017.50 1017.29 1017.12 1016.88 1016.56 1016.18 1015.78 1015.38 1015.02 1014.86 1014.61 1014.19 1014.04 1014.31
1014.92 1015.03 1014.49 1014.44 1014.44 1014.54 1014.61 1014.26 1013.14 1011.89 1012.12 1012.17 1012.25 1012.51 1012.70 1012.87 1013.10 1013.07 1013.36 1013.86 1014.20 1014.61 1015.12 1015.59 1016.26 1016.72 1017.06 1017.29 1017.47 1017.61 1017.78 1017.92 1017.92 1017.68 1017.51 1017.33 1017.12 1016.88 1016.63 1016.35 1015.88 1015.38 1014.92 1014.82 1014.61 1014.10 1014.15 1014.10 1014.38
1015.09 1015.06 1014.79 1014.30 1014.26 1014.51 1014.74 1013.39 1011.60 1011.57 1011.73 1011.86 1012.05 1012.27 1012.50 1012.61 1012.67 1012.90 1013.23 1013.64 1014.08 1014.64 1015.08 1015.64 1016.15 1016.70 1017.08 1017.30 1017.43 1017.60 1017.86 1017.92 1017.80 1017.66 1017.46 1017.23 1016.97 1016.69 1016.37 1016.04 1015.72 1015.22 1014.71 1014.36 1014.33 1014.12 1014.15 1014.22 1014.41
1015.70 1015.37 1015.03 1014.38 1014.30 1014.47 1014.64 1013.29 1011.70 1011.58 1011.74 1011.71 1011.80 1011.88 1012.24 1012.44 1012.60 1012.78 1013.13 1013.43 1013.93 1014.53 1015.24 1015.96 1016.42 1016.91 1017.26 1017.56 1017.73 1017.87 1017.90 1017.80 1017.82 1017.70 1017.42 1017.09 1016.73 1016.36 1016.12 1015.77 1015.49 1014.95 1014.54 1014.38 1014.19 1014.05 1013.78 1014.24 1014.64
1015.47 1015.34 1015.09 1014.98 1014.54 1014.38 1014.33 1012.53 1011.90 1011.14 1011.46 1011.34 1011.25 1011.57 1011.76 1012.20 1012.49 1012.70 1013.19 1013.73 1014.24 1014.75 1015.31 1015.99 1016.57 1017.01 1017.26 1017.51 1017.87 1018.00 1017.95 1017.79 1017.69 1017.48 1017.14 1016.79 1016.59 1016.32 1016.07 1015.78 1015.37 1015.04 1014.69 1014.29 1013.99 1013.88 1013.65 1014.07 1014.70
1015.23 1015.15 1015.01 1014.77 1014.60 1014.54 1014.05 1012.72 1011.33 1010.36 1010.74 1010.87 1010.94 1011.06 1011.47 1012.00 1012.67 1013.01 1013.62 1014.14 1014.72 1015.34 1015.54 1015.98 1016.54 1017.04 1017.28 1017.62 1017.82 1018.11 1018.22 1018.00 1017.66 1017.35 1016.98 1016.79 1016.65 1016.32 1016.28 1015.92 1015.42 1015.07 1014.83 1014.38 1014.13 1013.81 1014.04 1014.45 1015.12
1015.62 1015.58 1015.14 1014.76 1014.72 1014.73 1014.14 1012.02 1010.67 1010.27 1010.18 1010.15 1010.52 1010.81 1011.48 1012.37 1013.13 1013.79 1014.27 1014.69 1015.08 1015.56 1015.96 1016.29 1016.66 1017.02 1017.38 1017.62 1017.95 1018.18 1018.24 1018.05 1017.83 1017.40 1017.16 1017.00 1016.79 1016.65 1016.42 1016.01 1015.60 1015.13 1014.80 1014.35 1013.90 1013.46 1014.10 1014.70 1015.02
1015.85 1015.83 1015.51 1015.42 1015.09 1014.98 1014.68 1012.36 1010.39 1009.97 1009.91 1009.69 1010.09 1010.65 1011.36 1012.25 1013.38 1014.26 1014.83 1015.04 1015.58 1016.04 1016.34 1016.53 1016.90 1017.27 1017.43 1017.70 1017.94 1018.01 1018.17 1018.14 1017.85 1017.65 1017.38 1017.15 1016.98 1016.83 1016.51 1016.06 1015.80 1015.23 1014.80 1014.33 1013.94 1013.74 1013.72 1014.35 1015.08
1016.10 1015.72 1015.73 1015.90 1016.00 1016.07 1015.14 1013.74 1010.90 1009.99 1009.68 1009.38 1009.72 1010.55 1011.28 1012.27 1013.45 1014.40 1015.08 1015.44 1015.73 1015.92 1016.45 1016.49 1016.78 1017.30 1017.53 1017.86 1017.75 1018.00 1018.20 1018.26 1018.11 1018.07 1017.84 1017.50 1017.19 1016.92 1016.60 1016.28 1015.84 1015.32 1014.78 1014.30 1013.88 1013.73 1013.84 1014.44 1015.08
1016.12 1016.19 1016.51 1016.81 1016.81 1016.81 1015.82 1015.06 1010.43 1009.98 1009.14 1008.83 1009.37 1010.27 1011.14 1012.25 1013.43 1014.44 1014.94 1015.15 1015.68 1015.97 1016.36 1016.63 1016.89 1017.31 1017.71 1017.87 1017.83 1017.97 1018.13 1018.30 1018.28 1018.27 1017.92 1017.66 1017.34 1017.06 1016.75 1016.32 1015.80 1015.47 1015.04 1014.57 1014.00 1013.75 1014.09 1014.38 1015.00
1016.65 1016.98 1017.58 1018.11 1018.15 1017.78 1016.14 1015.07 1011.50 1009.89 1008.76 1008.53 1009.07 1010.06 1011.08 1012.27 1013.31 1014.31 1014.93 1015.34 1015.65 1016.10 1016.59 1016.75 1016.93 1017.37 1017.76 1017.82 1017.87 1017.90 1018.04 1018.09 1018.12 1018.17 1017.96 1017.92 1017.54 1017.22 1016.94 1016.52 1016.03 1015.80 1015.31 1014.75 1014.18 1013.90 1014.04 1014.68 1015.17
1017.10 1017.84 1018.98 1019.53 1019.70 1018.20 1016.59 1015.52 1011.08 1009.08 1008.71 1008.63 1008.96 1009.86 1010.98 1012.30 1013.25 1014.15 1014.84 1015.42 1015.63 1016.07 1016.62 1016.90 1017.05 1017.41 1017.76 1017.74 1017.69 1017.90 1018.03 1018.18 1018.15 1018.30 1018.32 1018.12 1017.76 1017.50 1017.20 1016.84 1016.27 1016.05 1015.59 1015.11 1014.62 1014.51 1014.51 1014.69 1015.13
1017.48 1017.87 1018.80 1019.30 1020.14 1018.66 1017.00 1014.59 1010.01 1008.75 1008.60 1008.75 1009.20 1009.82 1010.85 1012.14 1013.00 1013.80 1014.49 1015.05 1015.58 1015.86 1016.38 1016.89 1017.11 1017.30 1017.63 1017.79 1017.56 1017.92 1017.96 1018.33 1018.37 1018.33 1018.28 1018.21 1017.93 1017.64 1017.42 1016.96 1016.38 1016.00 1015.74 1015.34 1014.97 1014.89 1015.03 1015.33 1015.62
1017.90 1017.97 1017.99 1019.27 1020.71 1018.88 1016.12 1013.30 1009.78 1008.77 1009.09 1009.28 1009.57 1010.08 1010.91 1012.02 1013.03 1013.66 1014.29 1014.70 1015.33 1015.88 1016.15 1016.47 1016.86 1017.11 1017.40 1017.73 1017.64 1017.86 1017.98 1018.13 1018.20 1018.21 1018.31 1018.08 1017.48 1017.46 1017.30 1017.05 1016.49 1016.14 1015.80 1015.48 1015.19 1015.21 1015.51 1015.81 1016.21
1017.49 1017.80 1018.20 1018.84 1019.40 1018.46 1016.21 1014.15 1011.07 1009.86 1009.77 1009.62 1009.98 1010.34 1010.98 1011.83 1012.82 1013.60 1014.14 1014.36 1014.92 1015.58 1015.90 1016.27 1016.68 1016.87 1017.16 1017.54 1017.61 1017.82 1017.89 1018.01 1018.19 1018.10 1018.08 1017.89 1017.77 1017.39 1017.23 1016.97 1016.61 1016.38 1015.99 1015.63 1015.43 1015.30 1015.74 1016.23 1016.66
1017.89 1017.74 1018.12 1018.20 1018.23 1017.99 1016.58 1013.22 1011.17 1010.53 1010.38 1010.42 1010.66 1010.80 1011.06 1011.65 1012.51 1013.29 1013.96 1014.29 1014.62 1015.18 1015.84 1016.26 1016.58 1016.75 1016.95 1017.35 1017.54 1017.82 1017.71 1018.02 1018.01 1018.07 1017.89 1017.71 1017.36 1017.16 1017.14 1016.90 1016.73 1016.40 1015.96 1015.78 1015.62 1015.49 1015.75 1016.17 1016.65
1017.53 1017.23 1017.02 1017.69 1018.21 1018.21 1016.90 1013.19 1010.88 1010.61 1010.43 1010.68 1010.74 1011.19 1011.45 1011.68 1012.05 1012.76 1013.71 1013.98 1014.47 1014.92 1015.53 1016.00 1016.43 1016.69 1016.65 1016.98 1017.29 1017.76 1017.74 1017.83 1017.95 1017.87 1017.46 1017.41 1017.13 1017.05 1016.87 1016.82 1016.58 1016.13 1016.10 1015.89 1015.70 1015.86 1016.09 1016.43 1016.86
Wind_Speed
3 3 2 5 4 4 3 6 2 3 2 2 1 3 3 1 5 4 2 8 7 10 7 7 9 7 7 6 5 5 5 6 7 7 7 7 7 8 9 9 10 9 8 8 9 8 10 9 9
2 2 5 3 5 2 5 4 6 6 2 3 2 1 2 5 1 1 6 8 10 10 8 6 9 8 7 6 5 5 5 6 6 7 8 8 8 8 9 10 10 9 10 9 10 10 8 8 9
2 4 4 5 3 5 5 5 5 2 1 2 2 2 2 4 2 4 4 12 10 8 7 6 9 8 7 5 5 5 5 5 6 7 8 9 9 9 9 9 9 10 9 9 9 9 8 6 9
3 5 5 4 5 7 6 3 4 2 2 2 0 5 4 3 4 2 8 12 10 7 6 7 9 8 7 6 4 4 5 6 6 7 8 9 10 10 11 9 9 9 9 8 9 9 8 7 5
4 3 4 1 5 6 5 4 5 4 2 2 3 4 4 1 3 6 11 11 11 7 5 5 8 7 7 6 5 4 4 6 6 7 9 10 10 11 11 11 10 11 8 8 9 11 8 7 6
4 3 3 3 5 5 5 3 5 3 2 1 2 1 5 1 4 6 9 10 8 9 6 5 7 7 6 5 4 4 3 4 6 7 9 10 11 11 12 11 11 11 10 9 9 11 10 8 6
6 4 4 3 5 5 4 5 3 3 2 6 3 3 3 2 5 9 8 8 7 6 6 5 4 4 5 5 4 3 3 4 6 8 10 10 12 12 13 12 12 11 11 11 10 11 12 11 9
5 5 3 4 3 6 1 3 1 5 6 2 5 6 5 2 7 8 7 6 6 5 5 5 4 3 2 1 1 3 3 5 6 8 9 10 10 11 11 13 12 14 13 12 11 12 12 11 12
3 4 2 5 6 4 2 3 2 0 1 3 6 4 1 6 10 7 4 3 4 4 5 4 4 4 3 3 1 3 4 5 7 7 8 7 5 7 9 11 14 15 14 13 12 13 12 10 6
4 4 9 4 4 3 2 4 2 2 3 5 6 4 3 7 7 10 8 10 7 7 6 6 5 5 4 2 3 2 2 3 3 4 5 4 6 6 8 9 13 13 14 14 14 14 13 6 3
4 6 4 4 5 2 2 3 2 3 7 10 8 6 6 7 8 9 9 8 10 5 4 7 6 5 5 3 2 1 2 2 2 4 4 4 4 5 5 4 4 5 8 5 8 8 4 5 3
2 5 4 3 1 1 3 4 5 7 8 2 8 3 5 9 12 13 11 10 6 6 6 4 6 5 4 2 2 2 1 1 2 3 5 4 3 5 6 5 6 5 5 7 6 4 4 4 5
4 3 3 4 4 5 2 7 6 13 12 9 7 5 8 8 10 7 5 4 5 6 5 5 4 5 4 4 2 1 0 1 3 3 4 3 4 4 5 6 6 5 6 5 5 5 4 4 4
2 3 6 6 2 3 4 4 2 6 1 3 4 8 9 9 11 5 6 7 8 5 4 3 4 4 5 3 3 1 1 3 3 3 3 4 3 3 5 6 6 6 4 4 4 5 4 4 2
0 5 6 2 1 4 3 6 12 7 5 8 7 7 6 9 6 11 9 9 8 5 5 5 6 6 5 4 3 1 1 2 3 3 4 5 4 5 5 5 5 5 5 5 4 4 3 4 3
1 3 3 0 3 1 1 8 6 3 3 9 7 6 6 6 9 7 6 6 6 5 6 6 6 7 5 4 2 1 2 1 2 3 3 5 6 6 5 4 5 6 6 5 4 4 3 3 3
5 4 2 7 1 1 2 7 7 2 2 9 9 8 6 6 5 5 6 6 6 6 8 7 7 6 5 3 2 3 2 2 3 3 3 5 5 5 4 4 5 6 5 4 4 4 6 5 4
5 4 3 5 1 1 4 20 14 14 11 13 11 7 7 7 7 4 5 5 7 8 8 8 6 6 5 3 2 2 1 2 1 2 3 3 4 5 5 6 6 5 6 5 4 3 4 6 4
4 2 2 3 1 3 6 14 18 14 7 8 8 6 5 6 1 4 5 7 8 7 8 8 8 5 3 1 2 1 1 1 1 3 5 5 6 5 6 6 6 5 5 7 6 3 6 5 8
1 1 6 5 1 1 5 20 16 6 5 4 3 4 3 3 4 4 5 5 4 7 6 7 6 5 3 2 1 1 0 1 2 3 4 5 6 7 6 6 6 7 5 6 6 3 5 3 4
3 5 3 5 4 1 6 10 5 3 4 3 3 1 0 5 6 5 6 6 6 6 6 6 5 5 4 3 2 1 1 1 1 2 3 5 7 6 6 6 6 6 5 5 6 4 7 7 3
2 4 2 0 3 3 3 6 5 5 9 5 5 5 4 4 4 5 5 5 6 6 5 6 6 5 4 3 2 3 1 0 1 2 3 5 7 6 6 6 6 6 5 6 3 2 3 6 7
4 2 3 2 3 2 1 3 11 4 7 4 7 7 5 5 6 7 7 7 5 6 5 5 6 5 4 3 4 3 2 1 1 2 4 5 6 6 6 6 7 6 5 6 2 3 3 5 8
6 5 7 4 2 3 2 4 11 4 5 1 1 5 5 6 6 6 5 6 5 4 5 5 6 4 4 3 5 3 3 1 1 2 3 4 5 4 5 7 6 6 6 7 2 3 7 7 8
3 5 4 6 5 7 3 2 13 5 5 3 2 6 6 6 7 7 8 7 6 7 6 5 6 5 4 3 4 3 3 2 1 1 2 4 4 3 6 7 7 4 5 6 4 5 6 8 9
5 5 7 7 3 4 2 7 9 6 2 6 3 2 6 7 6 8 8 7 7 7 7 5 6 5 4 3 4 3 3 1 1 1 1 2 3 4 5 6 7 6 6 5 4 4 5 7 7
4 4 3 8 2 4 4 8 11 2 5 7 4 1 6 7 7 7 7 7 7 7 8 8 7 5 5 4 3 3 2 3 2 2 1 2 5 3 5 5 6 6 6 4 5 4 6 6 7
3 2 3 3 2 4 5 6 8 7 9 10 5 4 4 5 6 6 7 7 6 5 6 6 6 6 5 4 3 3 3 2 2 2 2 4 4 4 4 5 5 5 5 4 3 3 7 7 6
3 2 2 2 4 5 1 7 6 3 4 6 7 7 5 5 6 7 6 6 7 5 6 6 6 6 6 4 3 3 3 1 2 2 3 4 4 4 4 5 5 4 3 3 3 4 7 9 7
1 2 6 4 5 0 3 8 4 4 4 6 7 8 6 3 6 7 7 7 7 7 6 7 6 6 6 5 4 3 2 1 2 3 3 3 5 4 4 4 5 5 3 3 1 6 7 8 9
Wind_Direction
7 19 69 43 60 64 264 257 270 243 238 201 114 174 202 196 171 214 335 178 158 148 147 130 127 114 103 94 80 65 48 33 21 14 11 7 1 356 346 354 354 3 335 315 298 280 247 240 226
3 63 47 81 92 84 262 255 235 226 214 138 151 139 284 258 225 175 136 193 166 145 139 133 132 122 117 105 88 75 56 36 25 15 6 3 0 357 352 343 337 341 352 334 315 308 287 249 231
103 42 82 92 113 190 228 221 234 293 168 192 218 212 207 233 245 201 197 150 148 138 139 145 137 133 127 110 90 69 57 48 29 18 10 3 358 355 352 345 331 321 331 339 337 327 314 263 231
81 20 47 96 218 247 212 255 222 188 260 253 33 285 285 204 162 202 144 144 144 148 148 156 149 145 139 126 101 72 55 45 41 29 17 5 360 352 347 341 343 327 299 302 329 330 332 342 251
38 58 72 89 247 257 245 236 173 199 223 202 166 261 255 209 58 121 146 149 152 156 164 166 156 153 147 140 118 83 53 40 32 26 15 6 359 354 346 342 334 326 309 305 312 321 321 324 310
52 99 75 237 246 259 267 201 158 208 213 178 210 269 247 83 148 152 153 154 154 160 169 178 165 163 161 152 131 106 69 40 28 21 9 3 1 352 344 334 326 321 315 311 301 297 310 302 300
116 96 199 218 261 292 241 135 196 200 196 240 163 197 256 213 197 153 157 148 155 169 172 179 175 171 162 156 149 96 54 41 22 15 10 3 355 349 342 334 325 313 307 302 295 290 301 303 294
106 95 157 232 218 266 200 204 190 178 247 52 176 227 255 183 146 130 135 154 165 181 189 189 186 175 173 174 189 107 62 39 24 13 7 2 354 344 336 332 322 313 304 298 292 285 284 290 289
137 72 231 244 168 246 180 215 197 94 261 233 213 209 226 127 131 123 131 161 185 209 210 197 198 196 191 189 186 78 46 39 25 9 -0 355 346 335 328 325 323 318 309 301 295 290 283 288 258
102 135 218 214 205 238 260 187 261 308 223 245 273 248 112 148 168 166 179 192 196 207 210 202 206 203 192 202 120 80 48 29 7 357 351 347 337 333 329 323 321 320 311 304 305 304 289 227 234
167 200 211 252 231 225 265 280 236 205 262 223 209 237 175 181 191 198 205 194 205 196 198 197 202 199 191 180 129 72 36 355 351 355 350 335 329 324 319 312 314 315 305 301 312 311 270 199 201
198 240 217 262 225 168 246 307 278 208 239 184 218 217 170 193 203 207 211 206 184 195 212 202 202 192 188 136 109 85 19 336 345 333 331 328 327 325 320 315 315 309 306 304 312 310 266 188 192
200 246 186 263 280 249 312 251 244 262 253 259 242 235 218 213 215 220 219 193 194 208 213 214 186 187 158 135 116 127 290 348 326 322 317 322 320 316 316 311 312 309 304 303 311 313 263 165 179
184 281 266 278 227 240 217 266 55 257 229 230 204 243 235 224 219 199 190 203 204 206 212 169 170 144 133 139 139 146 2 344 324 316 321 319 310 304 304 306 307 304 288 298 307 307 246 188 144
40 313 311 216 256 235 179 271 234 243 289 283 279 264 245 235 216 214 210 204 192 197 154 152 128 128 128 129 129 78 10 358 324 308 312 323 310 302 298 295 292 293 282 292 304 302 219 151 132
21 66 342 298 146 317 311 260 271 355 179 269 277 275 264 255 231 221 207 204 188 149 148 126 128 120 124 117 105 51 22 345 325 331 321 315 304 295 301 299 298 302 298 302 311 308 202 132 140
359 248 218 317 169 14 157 276 266 333 262 280 274 267 263 265 254 226 208 192 168 148 133 121 120 121 116 99 65 48 9 344 340 321 309 307 298 293 300 299 307 313 301 280 268 283 168 154 159
204 219 241 265 309 147 257 266 269 275 260 261 277 278 265 254 247 200 164 129 123 121 119 123 117 121 110 89 62 34 355 4 323 304 285 307 310 308 327 323 319 323 320 309 298 291 195 137 159
117 164 248 264 300 294 242 281 286 288 246 272 278 291 281 245 89 97 109 115 112 107 124 130 131 138 116 84 59 32 8 331 330 325 337 340 327 332 342 317 318 316 324 299 297 249 163 107 124
101 320 274 269 225 210 337 291 277 291 245 207 258 301 285 136 126 109 115 113 112 135 132 130 135 141 119 106 117 124 298 312 289 313 336 347 343 358 320 318 317 324 326 309 312 225 126 96 153
203 201 217 236 323 181 321 290 324 276 276 234 225 220 146 180 167 145 141 137 125 139 153 141 147 128 119 117 124 122 43 321 328 357 346 350 346 331 317 324 328 316 322 316 301 159 153 142 87
254 212 175 151 54 253 2 284 290 304 296 252 235 220 214 162 144 146 159 141 151 163 151 144 140 130 122 126 141 87 121 147 324 322 330 336 332 330 336 335 337 332 324 337 338 195 116 125 137
220 75 105 70 105 6 321 104 271 338 298 260 222 218 210 169 169 171 175 157 168 158 150 161 127 125 122 152 111 122 126 233 346 332 350 338 319 323 340 345 351 343 334 335 287 134 129 117 151
149 76 48 49 66 39 309 137 283 237 230 227 129 208 193 155 167 163 165 144 151 148 147 165 131 138 134 174 111 145 130 108 359 339 351 342 324 336 351 351 348 345 343 336 334 92 125 114 115
78 72 339 356 7 218 342 84 246 283 262 249 120 203 192 162 165 161 172 176 167 170 169 171 143 146 157 164 141 165 139 151 248 334 356 330 328 350 343 341 341 343 339 332 357 89 107 122 120
177 163 161 208 207 252 27 227 252 213 315 255 280 94 162 174 184 180 191 180 182 174 170 176 157 148 165 187 167 174 153 125 271 242 202 298 297 308 322 321 321 335 340 344 346 102 102 119 120
196 198 150 103 35 52 231 283 297 255 298 280 301 157 208 191 200 192 192 183 183 180 181 180 160 153 167 206 180 191 170 164 238 287 336 276 275 311 319 311 317 323 330 342 350 117 117 113 125
162 149 91 351 182 254 299 286 241 346 337 346 313 298 267 183 196 191 195 186 185 183 176 172 158 162 172 201 198 198 198 193 256 271 298 287 303 310 310 302 302 316 317 328 352 93 131 123 122
137 195 50 156 143 171 183 262 209 311 348 357 353 319 291 213 204 202 203 195 180 165 174 176 157 163 166 191 211 193 221 185 271 273 296 284 278 288 295 293 301 300 326 335 310 111 130 139 134
351 225 164 154 241 104 144 276 187 211 102 63 20 357 338 272 204 198 199 182 181 179 176 178 164 178 175 178 203 196 228 213 267 269 263 290 288 287 266 278 282 296 300 294 14 116 123 127 131